Location: Bothwell
(41.7170°N, 112.2589°W)
Time: 00:31:29
(UTC+00:00)

A-11 Canister half - All Passes

Search period start: 12 May 2026 00:00
Search period end: 22 May 2026 00:00
Orbit: 1523 x 1685 km, 47.3° (Epoch: 11 May)

Date Brightness Start Highest point End Pass type
(mag) Time Alt. Az. Time Alt. Az. Time Alt. Az.
12 May - 00:58:15 10° SW 01:07:36 65° SE 01:17:21 10° ENE daylight
12 May - 03:03:08 10° W 03:12:50 70° NNW 03:22:52 10° ENE visible
12 May - 05:09:04 10° WNW 05:18:56 68° N 05:29:04 10° E visible
12 May - 07:14:26 10° WNW 07:24:24 72° SW 07:34:30 10° SE visible
12 May - 09:20:44 10° WNW 09:28:21 25° SW 09:35:59 10° S visible
12 May - 22:36:25 10° SSE 22:42:18 18° SE 22:48:17 10° E daylight
13 May - 00:36:29 10° SW 00:45:47 62° SE 00:55:26 10° ENE daylight
13 May - 02:41:16 10° W 02:50:55 71° NNW 03:00:57 10° ENE daylight
13 May - 04:47:11 10° WNW 04:57:01 67° N 05:07:07 10° E visible
13 May - 06:52:33 10° WNW 07:02:32 74° SSW 07:12:39 10° SE visible
13 May - 08:58:43 10° WNW 09:06:33 27° SW 09:14:25 10° S visible
13 May - 22:15:05 10° SSE 22:20:33 17° ESE 22:26:06 10° E daylight
14 May - 00:14:44 10° SW 00:23:57 60° SE 00:33:30 10° ENE daylight
14 May - 02:19:22 10° W 02:29:00 72° NNW 02:39:01 10° ENE daylight
14 May - 04:25:18 10° WNW 04:35:05 66° N 04:45:10 10° E visible
14 May - 06:30:41 10° WNW 06:40:39 77° SSW 06:50:48 10° SE visible
14 May - 08:36:42 10° WNW 08:44:44 28° SW 08:52:50 10° S visible
14 May - 21:53:48 10° SSE 21:58:48 16° ESE 22:03:51 10° E daylight
14 May - 23:52:59 10° SW 00:02:08 57° SE 00:11:36 10° ENE daylight
15 May - 01:57:29 10° WSW 02:07:06 74° NNW 02:17:06 10° ENE daylight
15 May - 04:03:25 10° WNW 04:13:10 66° N 04:23:12 10° E visible
15 May - 06:08:48 10° WNW 06:18:46 79° SSW 06:28:56 10° SE visible
15 May - 08:14:42 10° WNW 08:22:55 30° SW 08:31:14 10° S visible
15 May - 21:32:36 10° SSE 21:37:03 14° ESE 21:41:34 10° E daylight
15 May - 23:31:15 10° SW 23:40:18 54° SE 23:49:41 10° ENE daylight
16 May - 01:35:37 10° WSW 01:45:12 75° NNW 01:55:10 10° ENE daylight
16 May - 03:41:31 10° WNW 03:51:14 65° N 04:01:16 10° E visible
16 May - 05:46:56 10° WNW 05:56:54 82° SSW 06:07:04 10° SE visible
16 May - 07:52:44 10° WNW 08:01:07 32° SW 08:09:36 10° S visible
16 May - 21:11:30 10° SSE 21:15:19 13° ESE 21:19:09 10° E daylight
16 May - 23:09:31 10° SSW 23:18:30 52° SE 23:27:46 10° ENE daylight
17 May - 01:13:45 10° WSW 01:23:18 77° NNW 01:33:16 10° ENE daylight
17 May - 03:19:38 10° WNW 03:29:18 65° N 03:39:18 10° E visible
17 May - 05:25:05 10° WNW 05:35:01 84° SSW 05:45:11 10° ESE visible
17 May - 07:30:46 10° WNW 07:39:19 33° SW 07:47:58 10° S visible
17 May - 20:50:36 10° SE 20:53:34 12° ESE 20:56:34 10° ESE daylight
17 May - 22:47:48 10° SSW 22:56:41 49° SE 23:05:51 10° ENE daylight
18 May - 00:51:52 10° WSW 01:01:25 78° NNW 01:11:20 10° ENE daylight
18 May - 02:57:45 10° WNW 03:07:23 64° N 03:17:21 10° E visible
18 May - 05:03:13 10° WNW 05:13:07 87° SSW 05:23:18 10° ESE visible
18 May - 07:08:49 10° WNW 07:17:30 35° SW 07:26:19 10° SSE visible
18 May - 20:30:09 10° SE 20:31:50 11° ESE 20:33:33 10° ESE daylight
18 May - 22:26:06 10° SSW 22:34:53 47° SE 22:43:55 10° ENE daylight
19 May - 00:30:01 10° WSW 00:39:32 80° NNW 00:49:26 10° ENE daylight
19 May - 02:35:52 10° WNW 02:45:28 64° N 02:55:24 10° E daylight
19 May - 04:41:21 10° WNW 04:51:15 89° SSW 05:01:24 10° ESE visible
19 May - 06:46:53 10° WNW 06:55:40 37° SW 07:04:37 10° SSE visible
19 May - 22:04:25 10° SSW 22:13:05 44° SE 22:22:00 10° ENE daylight
20 May - 00:08:09 10° WSW 00:17:39 82° NNW 00:27:31 10° ENE daylight
20 May - 02:13:58 10° W 02:23:32 63° N 02:33:26 10° E daylight
20 May - 04:19:29 10° WNW 04:29:21 89° NNE 04:39:30 10° ESE visible
20 May - 06:24:57 10° WNW 06:33:51 39° SW 06:42:55 10° SSE visible
20 May - 21:42:44 10° SSW 21:51:17 42° SE 22:00:04 10° ENE daylight
20 May - 23:46:17 10° WSW 23:55:46 84° NNW 00:05:37 10° ENE daylight
21 May - 01:52:05 10° W 02:01:37 63° N 02:11:29 10° E daylight
21 May - 03:57:37 10° WNW 04:07:28 87° NNE 04:17:35 10° ESE visible
21 May - 06:03:01 10° WNW 06:12:02 41° SW 06:21:13 10° SSE visible
21 May - 21:21:04 10° SSW 21:29:29 40° SE 21:38:08 10° ENE daylight
21 May - 23:24:26 10° WSW 23:33:54 86° NNW 23:43:42 10° ENE daylight
